Time,TemperatureF,DewpointF,PressureIn,WindDirection,WindDirectionDegrees,WindSpeedMPH,WindSpeedGustMPH,Humidity,HourlyPrecipIn,Conditions,Clouds,dailyrainin,SoftwareType,DateUTC
2013-09-25 00:14:00,52.0,50.0,29.94,SSW,207,2.0,-999.0,92,-99.99,,,-99.99,,2013-09-25 04:14:00,
2013-09-25 00:24:00,52.0,49.0,29.93,South,178,2.0,-999.0,91,-99.99,,,-99.99,,2013-09-25 04:24:00,
2013-09-25 00:54:00,52.0,49.0,29.93,South,186,2.0,-999.0,90,-99.99,,,-99.99,,2013-09-25 04:54:00,
2013-09-25 01:13:00,52.0,49.0,29.92,ESE,104,1.0,-999.0,90,-99.99,,,-99.99,,2013-09-25 05:13:00,
2013-09-25 01:23:00,52.0,49.0,29.92,SSE,152,1.0,-999.0,89,-99.99,,,-99.99,,2013-09-25 05:23:00,
2013-09-25 01:53:00,51.0,48.0,29.91,SSE,153,1.0,-999.0,88,-99.99,,,-99.99,,2013-09-25 05:53:00,
2013-09-25 02:13:00,52.0,48.0,29.91,SSE,151,1.0,-999.0,86,-99.99,,,-99.99,,2013-09-25 06:13:00,
2013-09-25 02:23:00,52.0,48.0,29.91,SSE,152,1.0,-999.0,86,-99.99,,,-99.99,,2013-09-25 06:23:00,
2013-09-25 02:42:00,52.0,48.0,29.91,South,189,2.0,-999.0,85,-99.99,,,-99.99,,2013-09-25 06:42:00,
2013-09-25 02:52:00,52.0,47.0,29.91,SW,214,3.0,-999.0,84,-99.99,,,-99.99,,2013-09-25 06:52:00,
2013-09-25 03:12:00,52.0,47.0,29.90,SSW,204,4.0,-999.0,84,-99.99,,,-99.99,,2013-09-25 07:12:00,
2013-09-25 03:22:00,52.0,47.0,29.90,SW,222,4.0,-999.0,84,-99.99,,,-99.99,,2013-09-25 07:22:00,
2013-09-25 03:53:00,51.0,47.0,29.89,SSE,151,0.0,-999.0,87,-99.99,,,-99.99,,2013-09-25 07:53:00,
2013-09-25 04:12:00,50.0,47.0,29.88,SSE,151,1.0,-999.0,88,-99.99,,,-99.99,,2013-09-25 08:12:00,
2013-09-25 04:22:00,50.0,46.0,29.87,SSE,151,0.0,-999.0,87,-99.99,,,-99.99,,2013-09-25 08:22:00,
2013-09-25 04:32:00,50.0,46.0,29.87,SSE,151,0.0,-999.0,87,-99.99,,,-99.99,,2013-09-25 08:32:00,
2013-09-25 04:42:00,50.0,46.0,29.87,SSE,151,0.0,-999.0,87,-99.99,,,-99.99,,2013-09-25 08:42:00,
2013-09-25 04:53:00,49.0,46.0,29.87,SSE,151,0.0,-999.0,89,-99.99,,,-99.99,,2013-09-25 08:53:00,
2013-09-25 05:11:00,50.0,46.0,29.87,SSE,151,0.0,-999.0,86,-99.99,,,-99.99,,2013-09-25 09:11:00,
2013-09-25 05:22:00,49.0,46.0,29.86,SSE,151,0.0,-999.0,88,-99.99,,,-99.99,,2013-09-25 09:22:00,
2013-09-25 05:43:00,49.0,46.0,29.86,SSE,151,1.0,-999.0,88,-99.99,,,-99.99,,2013-09-25 09:43:00,
2013-09-25 05:54:00,49.0,45.0,29.86,SSE,151,0.0,-999.0,87,-99.99,,,-99.99,,2013-09-25 09:54:00,
2013-09-25 06:12:00,48.0,45.0,29.86,SSE,151,0.0,-999.0,88,-99.99,,,-99.99,,2013-09-25 10:12:00,
2013-09-25 06:23:00,49.0,45.0,29.86,SSE,151,0.0,-999.0,87,-99.99,,,-99.99,,2013-09-25 10:23:00,
2013-09-25 06:42:00,48.0,45.0,29.86,SSE,152,1.0,-999.0,88,-99.99,,,-99.99,,2013-09-25 10:42:00,
2013-09-25 06:53:00,49.0,46.0,29.86,SSE,151,0.0,-999.0,91,-99.99,,,-99.99,,2013-09-25 10:53:00,
2013-09-25 07:12:00,48.0,46.0,29.86,East,99,1.0,-999.0,92,-99.99,,,-99.99,,2013-09-25 11:12:00,
2013-09-25 07:22:00,48.0,46.0,29.87,East,99,0.0,-999.0,93,-99.99,,,-99.99,,2013-09-25 11:22:00,
2013-09-25 07:52:00,48.0,46.0,29.88,South,191,2.0,-999.0,92,-99.99,,,-99.99,,2013-09-25 11:52:00,
2013-09-25 08:12:00,49.0,46.0,29.89,SSW,213,5.0,-999.0,89,-99.99,,,-99.99,,2013-09-25 12:12:00,
2013-09-25 08:22:00,49.0,45.0,29.89,SSW,198,6.0,-999.0,86,-99.99,,,-99.99,,2013-09-25 12:22:00,
2013-09-25 08:52:00,50.0,45.0,29.89,South,175,0.0,-999.0,82,-99.99,,,-99.99,,2013-09-25 12:52:00,
2013-09-25 09:11:00,50.0,45.0,29.88,ESE,115,1.0,-999.0,84,-99.99,,,-99.99,,2013-09-25 13:11:00,
2013-09-25 09:22:00,51.0,46.0,29.88,South,178,5.0,-999.0,84,-99.99,,,-99.99,,2013-09-25 13:22:00,
2013-09-25 09:52:00,52.0,50.0,29.89,SSE,154,2.0,-999.0,94,-99.99,,,-99.99,,2013-09-25 13:52:00,
2013-09-25 10:11:00,53.0,51.0,29.88,East,84,1.0,-999.0,94,-99.99,,,-99.99,,2013-09-25 14:11:00,
2013-09-25 10:22:00,53.0,51.0,29.88,South,182,1.0,-999.0,94,-99.99,,,-99.99,,2013-09-25 14:22:00,
2013-09-25 10:52:00,53.0,50.0,29.86,East,81,6.0,-999.0,90,-99.99,,,-99.99,,2013-09-25 14:52:00,
2013-09-25 11:11:00,55.0,52.0,29.86,ENE,69,6.0,-999.0,88,-99.99,,,-99.99,,2013-09-25 15:11:00,
2013-09-25 11:22:00,56.0,51.0,29.86,ENE,78,4.0,-999.0,83,-99.99,,,-99.99,,2013-09-25 15:22:00,
2013-09-25 11:44:00,56.0,51.0,29.86,ENE,74,3.0,-999.0,83,-99.99,,,-99.99,,2013-09-25 15:44:00,
2013-09-25 11:54:00,57.0,51.0,29.87,SE,139,2.0,-999.0,81,-99.99,,,-99.99,,2013-09-25 15:54:00,
2013-09-25 12:13:00,57.0,52.0,29.87,South,182,2.0,-999.0,82,-99.99,,,-99.99,,2013-09-25 16:13:00,
2013-09-25 12:23:00,56.0,51.0,29.87,SSW,212,3.0,-999.0,84,-99.99,,,-99.99,,2013-09-25 16:23:00,
2013-09-25 12:43:00,56.0,51.0,29.87,SW,230,4.0,-999.0,84,-99.99,,,-99.99,,2013-09-25 16:43:00,
2013-09-25 12:53:00,57.0,51.0,29.88,South,180,4.0,-999.0,79,-99.99,,,-99.99,,2013-09-25 16:53:00,
2013-09-25 13:13:00,58.0,52.0,29.87,SSW,196,5.0,-999.0,80,-99.99,,,-99.99,,2013-09-25 17:13:00,
2013-09-25 13:23:00,58.0,52.0,29.87,SSW,196,5.0,-999.0,80,-99.99,,,-99.99,,2013-09-25 17:23:00,
2013-09-25 13:43:00,60.0,52.0,29.88,South,169,5.0,-999.0,75,-99.99,,,-99.99,,2013-09-25 17:43:00,
2013-09-25 13:52:00,60.0,52.0,29.87,SW,215,2.0,-999.0,74,-99.99,,,-99.99,,2013-09-25 17:52:00,
2013-09-25 14:13:00,61.0,52.0,29.87,SW,221,5.0,-999.0,71,-99.99,,,-99.99,,2013-09-25 18:13:00,
2013-09-25 14:22:00,62.0,52.0,29.86,SSW,211,4.0,-999.0,69,-99.99,,,-99.99,,2013-09-25 18:22:00,
2013-09-25 14:42:00,61.0,52.0,29.85,South,186,2.0,-999.0,72,-99.99,,,-99.99,,2013-09-25 18:42:00,
2013-09-25 14:52:00,60.0,52.0,29.85,South,182,3.0,-999.0,76,-99.99,,,-99.99,,2013-09-25 18:52:00,
2013-09-25 15:11:00,58.0,52.0,29.85,SSE,163,4.0,-999.0,80,-99.99,,,-99.99,,2013-09-25 19:11:00,
2013-09-25 15:22:00,59.0,53.0,29.85,SSE,165,2.0,-999.0,80,-99.99,,,-99.99,,2013-09-25 19:22:00,
2013-09-25 15:52:00,60.0,52.0,29.84,South,187,2.0,-999.0,76,-99.99,,,-99.99,,2013-09-25 19:52:00,
2013-09-25 16:12:00,59.0,52.0,29.84,South,182,2.0,-999.0,78,-99.99,,,-99.99,,2013-09-25 20:12:00,
2013-09-25 16:22:00,59.0,53.0,29.84,SSE,154,2.0,-999.0,80,-99.99,,,-99.99,,2013-09-25 20:22:00,
2013-09-25 16:52:00,58.0,52.0,29.84,SSE,168,2.0,-999.0,80,-99.99,,,-99.99,,2013-09-25 20:52:00,
2013-09-25 17:12:00,58.0,53.0,29.83,South,171,2.0,-999.0,82,-99.99,,,-99.99,,2013-09-25 21:12:00,
2013-09-25 17:22:00,57.0,51.0,29.84,SE,125,1.0,-999.0,80,-99.99,,,-99.99,,2013-09-25 21:22:00,
2013-09-25 17:54:00,57.0,53.0,29.84,SSE,159,1.0,-999.0,87,-99.99,,,-99.99,,2013-09-25 21:54:00,
2013-09-25 18:14:00,56.0,52.0,29.84,SE,130,1.0,-999.0,85,-99.99,,,-99.99,,2013-09-25 22:14:00,
2013-09-25 18:23:00,56.0,52.0,29.84,SE,130,0.0,-999.0,87,-99.99,,,-99.99,,2013-09-25 22:23:00,
2013-09-25 18:53:00,55.0,52.0,29.84,SE,130,0.0,-999.0,90,-99.99,,,-99.99,,2013-09-25 22:53:00,
2013-09-25 19:12:00,54.0,52.0,29.85,SE,130,0.0,-999.0,92,-99.99,,,-99.99,,2013-09-25 23:12:00,
2013-09-25 19:23:00,54.0,52.0,29.85,SE,130,0.0,-999.0,93,-99.99,,,-99.99,,2013-09-25 23:23:00,
2013-09-25 19:42:00,53.0,51.0,29.86,SE,130,0.0,-999.0,92,-99.99,,,-99.99,,2013-09-25 23:42:00,
2013-09-25 19:53:00,53.0,51.0,29.86,SSW,206,1.0,-999.0,93,-99.99,,,-99.99,,2013-09-25 23:53:00,
2013-09-25 20:12:00,53.0,51.0,29.86,SW,219,0.0,-999.0,94,-99.99,,,-99.99,,2013-09-26 00:12:00,
2013-09-25 20:22:00,53.0,51.0,29.86,SW,219,0.0,-999.0,94,-99.99,,,-99.99,,2013-09-26 00:22:00,
2013-09-25 20:42:00,53.0,51.0,29.85,SW,219,0.0,-999.0,94,-99.99,,,-99.99,,2013-09-26 00:42:00,
2013-09-25 20:52:00,53.0,51.0,29.86,SW,217,1.0,-999.0,94,-99.99,,,-99.99,,2013-09-26 00:52:00,
2013-09-25 21:12:00,53.0,51.0,29.86,SE,136,2.0,-999.0,94,-99.99,,,-99.99,,2013-09-26 01:12:00,
2013-09-25 21:23:00,52.0,50.0,29.86,ENE,64,2.0,-999.0,94,-99.99,,,-99.99,,2013-09-26 01:23:00,
2013-09-25 21:42:00,52.0,50.0,29.87,ENE,67,3.0,-999.0,93,-99.99,,,-99.99,,2013-09-26 01:42:00,
2013-09-25 21:52:00,52.0,49.0,29.88,ENE,76,4.0,-999.0,91,-99.99,,,-99.99,,2013-09-26 01:52:00,
2013-09-25 22:13:00,52.0,49.0,29.88,ENE,67,2.0,-999.0,89,-99.99,,,-99.99,,2013-09-26 02:13:00,
2013-09-25 22:22:00,52.0,49.0,29.89,ENE,67,2.0,-999.0,88,-99.99,,,-99.99,,2013-09-26 02:22:00,
2013-09-25 23:12:00,50.0,48.0,29.89,East,79,4.0,-999.0,93,-99.99,,,-99.99,,2013-09-26 03:12:00,
2013-09-25 23:22:00,50.0,47.0,29.89,ENE,71,2.0,-999.0,90,-99.99,,,-99.99,,2013-09-26 03:22:00,
2013-09-25 23:44:00,51.0,48.0,29.89,ENE,71,0.0,-999.0,89,-99.99,,,-99.99,,2013-09-26 03:44:00,
2013-09-25 23:54:00,51.0,46.0,29.89,NW,322,3.0,-999.0,84,-99.99,,,-99.99,,2013-09-26 03:54:00,